[[{"header":{"parameterUnit":"m.s-1","parameterCategory":1,"la1":30.2991,"la2":30.254,"lo1":-89.0895,"lo2":-89.0444,"dy":0.0017,"dx":0.0017,"nx":28,"ny":28,"refTime":"2023-10-21T03:00:00:Z","depth":0,"parameterNumber":2,"parameterNumberName":"U-component_of_WINDS"},"data":[0,0,0,0,0,0,0,0,0,0,0,0,0,0,0,0,0,0,0,0,0,0,0,0,0,0,0,0,0,0,0,0,0,0,0,0,0,0,0,0,0,0,0,0,0,0,0,0,0,0,0,0,0,0,0,0,0,0,0.2345,0.2345,0,0.2411,0.2412,0.2413,0.2441,0.2441,0.244,0.244,0.2508,0.251,0.2512,0,0,0,0,0,0,0,0,0,0,0,0,0,0.2242,0.2244,0.2345,0.2345,0.2346,0.2411,0.2412,0.2413,0.2441,0.2441,0.244,0.244,0.2508,0.251,0.2512,0,0,0,0,0,0,0,0,0,0,0,0,0,0.2295,0.2244,0.2344,0.2368,0.2371,0.2411,0.2412,0.2413,0.2441,0.2441,0.244,0.244,0.2507,0.251,0.2513,0.2534,0,0,0.2522,0.2523,0,0,0,0,0,0,0,0,0.2292,0.2299,0.2364,0.2366,0.237,0.2417,0.2401,0.2454,0.2441,0.2414,0.244,0.244,0.2478,0.2484,0.2497,0.2538,0.2541,0.2522,0.2524,0.2525,0.2526,0,0,0,0,0,0,0,0.2289,0.2296,0.2371,0.2365,0.2368,0.2375,0.2383,0.2411,0.2447,0.2416,0.2419,0.2426,0.248,0.2494,0.2498,0.2542,0.2522,0.2524,0.2526,0.2527,0.2605,0.2605,0,0,0,0,0,0,0.2281,0.2293,0.2369,0.2373,0.233,0.2377,0.2386,0.2402,0.2446,0.2453,0.2426,0.2427,0.2489,0.2495,0.2501,0.253,0.2525,0.2528,0.2529,0.2604,0.2605,0.2605,0,0,0,0,0,0,0.2279,0.2288,0.2366,0.2334,0.2344,0.2379,0.2398,0.2404,0.2417,0.2454,0.246,0.2434,0.2489,0.2497,0.2526,0.2532,0.2529,0.2532,0.2604,0.2604,0.2605,0.2587,0,0,0,0,0,0,0.2276,0.2287,0.2295,0.2334,0.2346,0.239,0.2398,0.2405,0.2422,0.2424,0.2462,0.2469,0.2489,0.2522,0.2529,0.2536,0.2534,0.2604,0.2604,0.2605,0.2587,0.2587,0.2586,0,0,0,0,0,0.2272,0.2287,0.2295,0.2304,0.2357,0.239,0.2397,0.2421,0.2423,0.2432,0.2455,0.2467,0.253,0.2524,0.2533,0.2541,0.2603,0.2604,0.2605,0.2587,0.2587,0.2586,0,0,0,0,0,0,0.2248,0.2293,0.2302,0.233,0.2356,0.2395,0.2407,0.242,0.2446,0.2446,0.2475,0.2483,0.251,0.2529,0.2521,0.2565,0.2568,0.257,0.2552,0.2552,0.2551,0.2546,0.2536,0,0,0,0,0,0.2246,0.2269,0.2307,0.2328,0.2341,0.2371,0.2387,0.2403,0.2431,0.2442,0.2468,0.2495,0.2521,0.2537,0.2563,0.259,0.2599,0.26,0.2599,0.2599,0.2601,0.2617,0.2618,0.2607,0.2607,0.2607,0,0,0.2242,0.2269,0.2282,0.2324,0.2346,0.237,0.2381,0.2405,0.2423,0.2446,0.2475,0.2495,0.2527,0.2555,0.2569,0.2571,0.2606,0.26,0.2599,0.2601,0.2618,0.2619,0.262,0.2608,0.2608,0.2608,0,0,0.2247,0.227,0.229,0.2312,0.2346,0.2366,0.2371,0.2408,0.2422,0.2452,0.247,0.2492,0.2536,0.2558,0.2575,0.2589,0.2602,0.2597,0.2595,0.261,0.2611,0.2612,0.2617,0.2619,0.2598,0.2598,0.2598,0,0.2238,0.2274,0.2299,0.2323,0.2341,0.2363,0.2384,0.2404,0.2444,0.2456,0.2459,0.2515,0.2538,0.2572,0.2575,0.2588,0.2595,0.2593,0.2609,0.261,0.2611,0.2617,0.2619,0.2598,0.2598,0.2598,0.2598,0,0.2262,0.2287,0.2299,0.2338,0.2357,0.2379,0.2408,0.2424,0.2439,0.2459,0.249,0.2518,0.255,0.256,0.2574,0.2596,0.2597,0.2603,0.2607,0.2611,0.2617,0.2619,0.2596,0.2597,0.2597,0.2597,0,0,0.2253,0.2306,0.231,0.2328,0.2367,0.2386,0.241,0.2441,0.2455,0.2482,0.2503,0.254,0.2547,0.2566,0.2583,0.2597,0.2606,0.2602,0.2603,0.2602,0.2633,0.2628,0.263,0.2615,0.2615,0.2616,0.2631,0,0.2264,0.2307,0.233,0.2363,0.2387,0.2408,0.2429,0.2455,0.2475,0.2498,0.2519,0.2545,0.2552,0.2564,0.2578,0.2602,0.2613,0.2601,0.2635,0.2636,0.2626,0.2633,0.2627,0.264,0.2633,0.2633,0.2634,0,0.2282,0.2309,0.2344,0.2381,0.2391,0.2409,0.2441,0.2462,0.2492,0.2506,0.2528,0.2545,0.257,0.2572,0.2608,0.26,0.2615,0.2629,0.263,0.2634,0.2635,0.2637,0.2644,0.2646,0.2637,0.2637,0.2637,0,0.2272,0.2318,0.2345,0.2359,0.2403,0.2415,0.2433,0.2463,0.2481,0.2509,0.252,0.255,0.2567,0.259,0.2614,0.2613,0.2648,0.2652,0.266,0.266,0.2667,0.2666,0.2677,0.2676,0.2676,0.2676,0.2676,0,0.2282,0.2303,0.2341,0.2358,0.2382,0.2409,0.2432,0.2453,0.2479,0.2501,0.2521,0.2541,0.2572,0.2596,0.2615,0.2642,0.265,0.2661,0.2666,0.266,0.2658,0.267,0.267,0.2677,0.2676,0.2676,0.2676,0,0.2276,0.2302,0.2333,0.2372,0.2382,0.2398,0.2431,0.2449,0.247,0.2496,0.2504,0.2537,0.2566,0.2593,0.2631,0.2644,0.2672,0.2678,0.2662,0.2664,0.2672,0.2671,0.269,0.2694,0.269,0.269,0.269,0,0.228,0.2297,0.2337,0.2353,0.2371,0.2396,0.2414,0.2442,0.246,0.2496,0.2509,0.2539,0.2565,0.261,0.2638,0.2667,0.2675,0.2679,0.2679,0.2672,0.2675,0.2674,0.2676,0.2679,0.2679,0.2679,0.2679,0,0.2285,0.2297,0.2323,0.2353,0.2375,0.24,0.2426,0.2438,0.247,0.2489,0.2519,0.2539,0.2579,0.2609,0.2641,0.2661,0.2675,0.2679,0.2682,0.2676,0.2665,0.2671,0.2661,0.2678,0.2678,0.2678,0.2678,0.2678,0.2284,0.23,0.2331,0.2359,0.2382,0.2406,0.2424,0.2447,0.2473,0.2507,0.2522,0.2552,0.2582,0.2628,0.2647,0.2672,0.2675,0.268,0.2681,0.2682,0.2681,0.2661,0.2678,0.2678,0.2678,0.2678,0.2678,0,0.2291,0.2312,0.2337,0.2373,0.2395,0.2407,0.2436,0.2454,0.248,0.2508,0.2533,0.2567,0.2597,0.2626,0.2658,0.2671,0.2679,0.2679,0.2678,0.2682,0.2676,0.267,0.2672,0.2672,0.2672,0.2672,0.2672,0.2672,0.2296,0.2324,0.2341,0.238,0.2401,0.2431,0.2447,0.2469,0.2491,0.2529,0.2553,0.2573,0.2601,0.2635,0.2662,0.267,0.2681,0.2679,0.2689,0.2682,0.2683,0.2683,0.2677,0.2681,0.2681,0.2693,0.2693,0.2693]},{"header":{"parameterUnit":"m.s-1","parameterCategory":1,"la1":30.2991,"la2":30.254,"lo1":-89.0895,"lo2":-89.0444,"dy":0.0017,"dx":0.0017,"nx":28,"ny":28,"refTime":"2023-10-21T03:00:00:Z","depth":0,"parameterNumber":3,"parameterNumberName":"V-component_of_WINDS"},"data":[0,0,0,0,0,0,0,0,0,0,0,0,0,0,0,0,0,0,0,0,0,0,0,0,0,0,0,0,0,0,0,0,0,0,0,0,0,0,0,0,0,0,0,0,0,0,0,0,0,0,0,0,0,0,0,0,0,0,1.9379,1.938,0,1.9404,1.9404,1.9404,1.9382,1.9381,1.938,1.9379,1.9402,1.9403,1.9405,0,0,0,0,0,0,0,0,0,0,0,0,0,1.9313,1.9314,1.9379,1.938,1.938,1.9403,1.9404,1.9404,1.9382,1.9381,1.938,1.9379,1.9402,1.9403,1.9405,0,0,0,0,0,0,0,0,0,0,0,0,0,1.934,1.9315,1.9379,1.9372,1.9371,1.9403,1.9404,1.9404,1.9382,1.9381,1.9379,1.9378,1.9401,1.9403,1.9405,1.9446,0,0,1.9412,1.9413,0,0,0,0,0,0,0,0,1.9338,1.9342,1.9372,1.9372,1.9372,1.9388,1.9389,1.9418,1.9382,1.9378,1.9379,1.9378,1.9398,1.9401,1.9408,1.9447,1.9448,1.9412,1.9413,1.9414,1.9415,0,0,0,0,0,0,0,1.9337,1.9341,1.9389,1.9373,1.9373,1.9367,1.9369,1.9394,1.9395,1.9378,1.9377,1.938,1.9398,1.9406,1.9409,1.9448,1.9412,1.9414,1.9415,1.9416,1.9522,1.9524,0,0,0,0,0,0,1.9336,1.934,1.9388,1.9389,1.9352,1.9369,1.9372,1.9384,1.9395,1.9395,1.9381,1.9379,1.9403,1.9406,1.9409,1.9458,1.9414,1.9416,1.9418,1.9521,1.9523,1.9524,0,0,0,0,0,0,1.9334,1.934,1.9387,1.9364,1.937,1.9372,1.9386,1.9385,1.9394,1.9397,1.9397,1.9389,1.9402,1.9406,1.9437,1.9459,1.9417,1.9419,1.9519,1.9521,1.9523,1.9556,0,0,0,0,0,0,1.9333,1.934,1.9355,1.9365,1.9371,1.9415,1.9387,1.9387,1.9398,1.9395,1.9405,1.9405,1.9401,1.9434,1.9439,1.9461,1.9421,1.9517,1.952,1.9523,1.9553,1.9559,1.9564,0,0,0,0,0,1.933,1.9363,1.9356,1.9362,1.939,1.9416,1.942,1.9415,1.9399,1.9415,1.9418,1.9405,1.9455,1.9437,1.9443,1.9466,1.9516,1.9519,1.9522,1.955,1.9557,1.9564,0,0,0,0,0,0,1.9354,1.9364,1.9357,1.9393,1.9404,1.9412,1.9432,1.9423,1.9438,1.9435,1.9428,1.943,1.9463,1.9467,1.9447,1.9506,1.9483,1.9488,1.9502,1.9509,1.9515,1.9513,1.9423,0,0,0,0,0,1.9364,1.9385,1.9391,1.9423,1.9429,1.943,1.944,1.9436,1.9447,1.9451,1.9456,1.9467,1.9485,1.9497,1.9514,1.9553,1.9555,1.9572,1.9577,1.9582,1.9586,1.9608,1.9615,1.9535,1.9535,1.9535,0,0,1.9384,1.9392,1.9405,1.9428,1.9436,1.9457,1.9433,1.9457,1.9472,1.9455,1.9485,1.9489,1.95,1.9536,1.9551,1.954,1.9609,1.9586,1.959,1.9591,1.9612,1.962,1.9627,1.9538,1.9537,1.9537,0,0,1.9431,1.9439,1.9467,1.9476,1.9489,1.9489,1.9496,1.9506,1.9508,1.9539,1.9526,1.9545,1.9576,1.9585,1.9594,1.9647,1.9636,1.9653,1.9682,1.9703,1.971,1.9715,1.9735,1.9742,1.9657,1.9657,1.9657,0,1.9454,1.9486,1.9482,1.9507,1.9518,1.9504,1.9532,1.9541,1.9558,1.9566,1.9553,1.9594,1.96,1.9638,1.9652,1.9659,1.9667,1.9651,1.9709,1.9715,1.972,1.9739,1.9746,1.9659,1.9659,1.9658,1.9658,0,1.9514,1.9537,1.9558,1.9577,1.959,1.9616,1.9616,1.963,1.9625,1.9627,1.9658,1.9666,1.9685,1.9693,1.9688,1.9731,1.9724,1.971,1.9687,1.973,1.9747,1.9754,1.9662,1.9661,1.966,1.966,0,0,1.9577,1.9594,1.9602,1.9611,1.9625,1.9642,1.9668,1.9688,1.97,1.9713,1.9735,1.9763,1.9751,1.9761,1.9757,1.9776,1.9818,1.976,1.976,1.9771,1.9867,1.9878,1.9886,1.9811,1.9813,1.9814,1.9867,0,1.9625,1.9671,1.9669,1.9712,1.9733,1.9721,1.9744,1.9755,1.9758,1.9776,1.9779,1.9799,1.9781,1.9788,1.9806,1.9809,1.9838,1.9805,1.9832,1.9833,1.983,1.9895,1.9906,1.9955,1.9873,1.9874,1.9875,0,1.9687,1.9704,1.975,1.9762,1.9771,1.9792,1.981,1.9828,1.984,1.9841,1.9853,1.9847,1.9873,1.985,1.9886,1.9865,1.9875,1.9879,1.9881,1.9883,1.9857,1.99,1.997,1.9978,1.9886,1.9885,1.9884,0,1.9729,1.9763,1.9795,1.9803,1.9818,1.9833,1.984,1.9851,1.9864,1.988,1.9888,1.9906,1.9917,1.9931,1.993,1.9913,1.9968,1.9944,1.9969,1.9969,1.9981,1.998,2.0055,1.9988,1.9987,1.9987,1.9987,0,1.9784,1.9812,1.9814,1.9834,1.9866,1.9863,1.9894,1.9899,1.991,1.9931,1.9921,1.9941,1.9937,1.9957,1.9956,1.9987,1.9991,1.9993,1.9992,1.9994,1.9994,2.0001,1.9998,1.9989,1.9989,1.9988,1.9988,0,1.9836,1.9838,1.9872,1.9884,1.9888,1.9911,1.9921,1.994,1.9943,1.9969,1.9975,1.9979,2.0002,2.0002,2.0027,2.0027,2.0065,2.006,2.0061,2.006,2.0086,2.0084,2.0168,2.018,2.0104,2.0105,2.0105,0,1.987,1.9892,1.9907,1.9921,1.9929,1.9951,1.9964,1.9962,1.9976,1.9994,2.001,2.0033,2.005,2.0087,2.0092,2.0112,2.0108,2.0136,2.011,2.0112,2.0109,2.0108,2.011,2.0141,2.0142,2.0142,2.0143,0,1.9932,1.9933,1.9952,1.9973,1.9989,2.0005,2.002,2.0031,2.0031,2.0048,2.0071,2.0085,2.0112,2.0134,2.0154,2.0161,2.0152,2.0151,2.0158,2.016,2.016,2.0161,2.0075,2.0149,2.0148,2.0148,2.0148,2.0147,1.9977,1.9996,2.001,2.0033,2.0044,2.0059,2.0077,2.0083,2.0103,2.0126,2.0123,2.015,2.0163,2.0189,2.0198,2.0218,2.0208,2.0218,2.0221,2.0224,2.0227,2.0157,2.0222,2.0222,2.0221,2.0221,2.0221,0,2.0038,2.0048,2.0068,2.009,2.0108,2.01,2.0116,2.0131,2.0155,2.0169,2.0187,2.0215,2.0237,2.0244,2.0265,2.0281,2.0277,2.0286,2.0285,2.0287,2.0234,2.0226,2.0289,2.0289,2.0289,2.0289,2.0289,2.0289,2.0073,2.0106,2.0108,2.0147,2.0156,2.0183,2.0193,2.0206,2.0217,2.0249,2.0268,2.0273,2.0284,2.0307,2.0326,2.0328,2.0337,2.0347,2.0347,2.0298,2.0291,2.0284,2.0277,2.0349,2.0349,2.0399,2.0399,2.04]}]]